[[{"header":{"parameterUnit":"m.s-1","parameterCategory":1,"la1":30.2991,"la2":30.254,"lo1":-89.0895,"lo2":-89.0444,"dy":0.0017,"dx":0.0017,"nx":28,"ny":28,"refTime":"2024-06-10T09:00:00:Z","depth":0,"parameterNumber":2,"parameterNumberName":"U-component_of_WINDS"},"data":[0,0,0,0,0,0,0,0,0,0,0,0,0,0,0,0,0,0,0,0,0,0,0,0,0,0,0,0,0,0,0,0,0,0,0,0,0,0,0,0,0,0,0,0,0,0,0,0,0,0,0,0,0,0,0,0,0,0,-0.7352,-0.7351,0,-0.7225,-0.7224,-0.7222,-0.7095,-0.7093,-0.7092,-0.709,-0.6961,-0.6959,-0.6957,0,0,0,0,0,0,0,0,0,0,0,0,0,-0.7487,-0.7485,-0.7352,-0.7351,-0.7349,-0.7225,-0.7224,-0.7222,-0.7095,-0.7093,-0.7091,-0.7089,-0.6962,-0.696,-0.6957,0,0,0,0,0,0,0,0,0,0,0,0,0,-0.7401,-0.7484,-0.7353,-0.7271,-0.7262,-0.7226,-0.7224,-0.7222,-0.7096,-0.7093,-0.7091,-0.7088,-0.6962,-0.696,-0.6957,-0.6991,0,0,-0.6949,-0.6947,0,0,0,0,0,0,0,0,-0.7406,-0.7396,-0.7285,-0.7277,-0.7267,-0.7173,-0.7224,-0.7144,-0.7096,-0.7159,-0.709,-0.7087,-0.7034,-0.7025,-0.7007,-0.6985,-0.6979,-0.6948,-0.6947,-0.6945,-0.6945,0,0,0,0,0,0,0,-0.7412,-0.7401,-0.7302,-0.7283,-0.7272,-0.7241,-0.7226,-0.7208,-0.7112,-0.7153,-0.7144,-0.7131,-0.7029,-0.701,-0.7003,-0.6978,-0.6948,-0.6946,-0.6944,-0.6943,-0.698,-0.6982,0,0,0,0,0,0,-0.743,-0.7407,-0.7306,-0.7298,-0.7332,-0.7241,-0.7224,-0.7206,-0.7112,-0.7095,-0.7133,-0.7125,-0.7016,-0.7006,-0.6998,-0.7033,-0.6945,-0.6943,-0.6941,-0.6977,-0.698,-0.6983,0,0,0,0,0,0,-0.7434,-0.7423,-0.7311,-0.735,-0.7333,-0.7241,-0.7222,-0.7205,-0.7186,-0.7097,-0.7079,-0.7131,-0.7013,-0.7002,-0.6994,-0.7027,-0.6942,-0.6939,-0.6974,-0.6978,-0.6982,-0.7104,0,0,0,0,0,0,-0.7438,-0.7425,-0.7436,-0.7351,-0.7332,-0.731,-0.7224,-0.7204,-0.7181,-0.717,-0.7091,-0.7075,-0.7011,-0.6999,-0.6991,-0.7022,-0.6937,-0.6971,-0.6976,-0.698,-0.7097,-0.7112,-0.7125,0,0,0,0,0,-0.7443,-0.7475,-0.7437,-0.7426,-0.7344,-0.7312,-0.73,-0.7225,-0.7185,-0.7196,-0.7139,-0.7077,-0.7024,-0.6999,-0.699,-0.702,-0.6968,-0.6974,-0.698,-0.7091,-0.7109,-0.7124,0,0,0,0,0,0,-0.7567,-0.7463,-0.7419,-0.7425,-0.7378,-0.729,-0.7302,-0.7247,-0.7211,-0.7202,-0.711,-0.7094,-0.7097,-0.7057,-0.7031,-0.7049,-0.6988,-0.6992,-0.7075,-0.7092,-0.7106,-0.7116,-0.6935,0,0,0,0,0,-0.7595,-0.7576,-0.7486,-0.75,-0.7479,-0.7395,-0.7378,-0.7324,-0.7272,-0.7252,-0.7194,-0.7146,-0.7119,-0.7103,-0.7072,-0.709,-0.7072,-0.7106,-0.712,-0.7132,-0.7137,-0.7146,-0.7161,-0.7002,-0.7002,-0.7002,0,0,-0.7652,-0.7593,-0.7587,-0.7523,-0.7481,-0.7465,-0.7379,-0.7365,-0.7353,-0.7249,-0.7239,-0.7196,-0.7136,-0.7142,-0.7142,-0.7109,-0.7177,-0.7139,-0.715,-0.7148,-0.7154,-0.7169,-0.7182,-0.7006,-0.7006,-0.7005,0,0,-0.7749,-0.7702,-0.7709,-0.7668,-0.7605,-0.7549,-0.7551,-0.7471,-0.7438,-0.7426,-0.7349,-0.7333,-0.7287,-0.7249,-0.7224,-0.7308,-0.7251,-0.73,-0.7374,-0.7384,-0.7396,-0.7407,-0.7439,-0.7452,-0.7306,-0.7306,-0.7306,0,-0.7829,-0.7801,-0.7719,-0.7711,-0.7686,-0.7591,-0.7599,-0.7563,-0.7494,-0.7479,-0.7443,-0.7385,-0.7338,-0.7335,-0.7356,-0.7338,-0.7339,-0.731,-0.7401,-0.7411,-0.742,-0.745,-0.7462,-0.7313,-0.7312,-0.7311,-0.7311,0,-0.7903,-0.7885,-0.7899,-0.7835,-0.7811,-0.781,-0.773,-0.7715,-0.7664,-0.7613,-0.7603,-0.7544,-0.7501,-0.7496,-0.7445,-0.7486,-0.7468,-0.7418,-0.7355,-0.7443,-0.747,-0.748,-0.7322,-0.732,-0.7318,-0.7316,0,0,-0.8075,-0.7966,-0.7973,-0.7943,-0.7867,-0.7852,-0.7848,-0.7806,-0.7797,-0.7752,-0.7747,-0.7712,-0.7665,-0.7636,-0.7581,-0.7589,-0.7662,-0.7537,-0.7535,-0.7565,-0.7707,-0.7747,-0.7762,-0.7623,-0.7625,-0.7627,-0.7713,0,-0.8161,-0.8147,-0.8074,-0.8083,-0.8067,-0.7977,-0.7974,-0.7927,-0.7879,-0.7859,-0.7805,-0.7783,-0.7722,-0.7704,-0.7708,-0.7653,-0.769,-0.7645,-0.762,-0.7621,-0.7641,-0.7775,-0.7817,-0.7901,-0.7722,-0.7724,-0.7725,0,-0.8259,-0.8221,-0.8229,-0.8154,-0.8144,-0.8143,-0.8099,-0.808,-0.8027,-0.7991,-0.796,-0.7898,-0.789,-0.783,-0.7819,-0.779,-0.7775,-0.7747,-0.7748,-0.7745,-0.768,-0.7778,-0.7925,-0.7939,-0.774,-0.7739,-0.7738,0,-0.8387,-0.8337,-0.8336,-0.8313,-0.8225,-0.8227,-0.819,-0.8133,-0.8114,-0.8076,-0.8062,-0.8024,-0.8004,-0.7977,-0.7906,-0.7868,-0.7904,-0.7837,-0.7876,-0.7878,-0.7889,-0.789,-0.804,-0.7877,-0.7876,-0.7876,-0.7876,0,-0.8491,-0.85,-0.8392,-0.8392,-0.8399,-0.8315,-0.8325,-0.828,-0.8231,-0.8221,-0.814,-0.8133,-0.8039,-0.8022,-0.7966,-0.7967,-0.7958,-0.793,-0.7916,-0.7939,-0.7943,-0.793,-0.7923,-0.7879,-0.7879,-0.7878,-0.7877,0,-0.8636,-0.8564,-0.8557,-0.8475,-0.8454,-0.8464,-0.8394,-0.8391,-0.8338,-0.8326,-0.8319,-0.8236,-0.8211,-0.8138,-0.8094,-0.8057,-0.8075,-0.8046,-0.8094,-0.8085,-0.8129,-0.8127,-0.8277,-0.8293,-0.8118,-0.812,-0.8121,0,-0.8709,-0.8714,-0.8632,-0.862,-0.8587,-0.8567,-0.8547,-0.8465,-0.8447,-0.8387,-0.8391,-0.836,-0.8331,-0.8296,-0.8232,-0.8199,-0.817,-0.8225,-0.8165,-0.8189,-0.8174,-0.8176,-0.8177,-0.8239,-0.8242,-0.8243,-0.8245,0,-0.8847,-0.8811,-0.8784,-0.8746,-0.8724,-0.8689,-0.8651,-0.8645,-0.8553,-0.8537,-0.8511,-0.8489,-0.8444,-0.8415,-0.8372,-0.8335,-0.8276,-0.8264,-0.8272,-0.8297,-0.8325,-0.8313,-0.8132,-0.8262,-0.826,-0.8259,-0.8258,-0.8257,-0.8959,-0.896,-0.8903,-0.8877,-0.8839,-0.8805,-0.8799,-0.8745,-0.8721,-0.8679,-0.8632,-0.8612,-0.8559,-0.8495,-0.8463,-0.8447,-0.8415,-0.8425,-0.8428,-0.8433,-0.8445,-0.8326,-0.8438,-0.8438,-0.8437,-0.8437,-0.8436,0,-0.9095,-0.9054,-0.903,-0.8979,-0.8959,-0.8903,-0.8858,-0.8845,-0.8828,-0.8784,-0.8757,-0.8728,-0.8699,-0.8634,-0.86,-0.86,-0.8572,-0.8594,-0.8595,-0.8588,-0.8474,-0.8472,-0.8617,-0.8617,-0.8617,-0.8617,-0.8617,-0.8617,-0.9163,-0.9162,-0.912,-0.9101,-0.9059,-0.9039,-0.9018,-0.8987,-0.8951,-0.8923,-0.8899,-0.8856,-0.8804,-0.8766,-0.8738,-0.8719,-0.8712,-0.8744,-0.8717,-0.8612,-0.8595,-0.8579,-0.8577,-0.8742,-0.8742,-0.8832,-0.8833,-0.8834]},{"header":{"parameterUnit":"m.s-1","parameterCategory":1,"la1":30.2991,"la2":30.254,"lo1":-89.0895,"lo2":-89.0444,"dy":0.0017,"dx":0.0017,"nx":28,"ny":28,"refTime":"2024-06-10T09:00:00:Z","depth":0,"parameterNumber":3,"parameterNumberName":"V-component_of_WINDS"},"data":[0,0,0,0,0,0,0,0,0,0,0,0,0,0,0,0,0,0,0,0,0,0,0,0,0,0,0,0,0,0,0,0,0,0,0,0,0,0,0,0,0,0,0,0,0,0,0,0,0,0,0,0,0,0,0,0,0,0,1.404,1.404,0,1.4053,1.4054,1.4054,1.4034,1.4033,1.4033,1.4032,1.4045,1.4046,1.4047,0,0,0,0,0,0,0,0,0,0,0,0,0,1.3996,1.3997,1.404,1.404,1.404,1.4053,1.4054,1.4054,1.4034,1.4033,1.4032,1.4032,1.4044,1.4046,1.4047,0,0,0,0,0,0,0,0,0,0,0,0,0,1.4013,1.3997,1.404,1.4032,1.4032,1.4053,1.4054,1.4054,1.4034,1.4033,1.4032,1.4031,1.4044,1.4045,1.4047,1.4077,0,0,1.4051,1.4052,0,0,0,0,0,0,0,0,1.4012,1.4014,1.4033,1.4033,1.4032,1.4041,1.4043,1.4061,1.4035,1.4033,1.4032,1.4031,1.4044,1.4046,1.405,1.4077,1.4078,1.4051,1.4052,1.4053,1.4053,0,0,0,0,0,0,0,1.4011,1.4014,1.4045,1.4033,1.4033,1.4027,1.4029,1.4046,1.4044,1.4033,1.4032,1.4034,1.4044,1.4049,1.4051,1.4078,1.4051,1.4053,1.4054,1.4054,1.4127,1.4128,0,0,0,0,0,0,1.4011,1.4013,1.4045,1.4046,1.4019,1.4029,1.403,1.4039,1.4044,1.4044,1.4035,1.4033,1.4047,1.4049,1.4051,1.4084,1.4053,1.4054,1.4055,1.4126,1.4128,1.4129,0,0,0,0,0,0,1.401,1.4014,1.4044,1.4029,1.4032,1.4031,1.4041,1.404,1.4045,1.4045,1.4045,1.404,1.4046,1.4049,1.407,1.4084,1.4055,1.4056,1.4125,1.4127,1.4128,1.4151,0,0,0,0,0,0,1.4009,1.4013,1.4025,1.4029,1.4033,1.4064,1.4042,1.4041,1.4048,1.4046,1.405,1.405,1.4046,1.4068,1.4071,1.4086,1.4058,1.4124,1.4126,1.4128,1.4149,1.4154,1.4157,0,0,0,0,0,1.4007,1.4031,1.4026,1.403,1.4048,1.4064,1.4067,1.4061,1.4049,1.406,1.406,1.405,1.4083,1.407,1.4074,1.4089,1.4123,1.4125,1.4128,1.4148,1.4153,1.4157,0,0,0,0,0,0,1.4029,1.4032,1.4026,1.4052,1.4058,1.4061,1.4075,1.4067,1.4077,1.4074,1.4067,1.4068,1.409,1.4092,1.4078,1.4117,1.4101,1.4104,1.4114,1.4119,1.4123,1.4121,1.4059,0,0,0,0,0,1.4037,1.405,1.4052,1.4075,1.4079,1.4077,1.4084,1.4079,1.4085,1.4087,1.4088,1.4094,1.4105,1.4113,1.4124,1.415,1.415,1.4162,1.4166,1.417,1.4172,1.4184,1.4189,1.4137,1.4137,1.4137,0,0,1.4053,1.4057,1.4066,1.408,1.4084,1.4097,1.4079,1.4094,1.4103,1.4089,1.4108,1.411,1.4116,1.4139,1.415,1.4141,1.4186,1.4173,1.4175,1.4176,1.4187,1.4192,1.4196,1.4138,1.4138,1.4138,0,0,1.4089,1.4094,1.4113,1.4117,1.4124,1.4122,1.4126,1.4131,1.4131,1.415,1.4139,1.415,1.4171,1.4174,1.4179,1.4216,1.4206,1.422,1.424,1.4252,1.4256,1.4259,1.427,1.4274,1.4223,1.4223,1.4223,0,1.4108,1.4128,1.4123,1.4139,1.4145,1.4133,1.4151,1.4155,1.4165,1.4169,1.416,1.4184,1.4187,1.421,1.4219,1.4224,1.4228,1.4218,1.4256,1.4259,1.4262,1.4272,1.4277,1.4224,1.4224,1.4224,1.4224,0,1.415,1.4164,1.4179,1.4187,1.4195,1.4212,1.4209,1.4217,1.4212,1.4211,1.423,1.4234,1.4244,1.425,1.4245,1.4272,1.4266,1.4257,1.424,1.4269,1.4278,1.4282,1.4226,1.4226,1.4225,1.4225,0,0,1.4199,1.4205,1.421,1.4213,1.4219,1.4229,1.4246,1.4255,1.4262,1.4269,1.4281,1.4298,1.4289,1.4294,1.429,1.4301,1.4327,1.429,1.429,1.4294,1.4354,1.4359,1.4364,1.4322,1.4323,1.4323,1.4353,0,1.4232,1.426,1.4255,1.4281,1.4293,1.4282,1.4296,1.4301,1.43,1.431,1.431,1.4321,1.4309,1.4312,1.4322,1.4322,1.4338,1.432,1.4331,1.4331,1.4327,1.437,1.4375,1.4403,1.4357,1.4357,1.4358,0,1.4275,1.4283,1.431,1.4313,1.4318,1.433,1.4338,1.4348,1.4353,1.4352,1.4358,1.4351,1.4366,1.4351,1.437,1.4357,1.4362,1.4363,1.4363,1.4362,1.4345,1.4367,1.4412,1.4416,1.4364,1.4364,1.4363,0,1.4304,1.4322,1.434,1.4344,1.4348,1.4357,1.4359,1.4363,1.4369,1.4376,1.438,1.4389,1.4393,1.44,1.4396,1.4386,1.4415,1.44,1.4413,1.4413,1.4418,1.4417,1.4462,1.4425,1.4425,1.4425,1.4425,0,1.434,1.4357,1.4353,1.4364,1.4381,1.4376,1.4394,1.4395,1.4399,1.4409,1.4401,1.441,1.4406,1.4415,1.4412,1.4427,1.443,1.4428,1.4427,1.4427,1.4427,1.4429,1.4426,1.4426,1.4426,1.4426,1.4426,0,1.4375,1.4373,1.4392,1.4395,1.4396,1.4408,1.441,1.442,1.4419,1.4432,1.4435,1.4434,1.4444,1.4441,1.4452,1.445,1.4469,1.4466,1.4467,1.4465,1.4478,1.4476,1.4523,1.4528,1.449,1.4491,1.4491,0,1.4397,1.4409,1.4413,1.4419,1.4422,1.4432,1.4438,1.4434,1.444,1.4447,1.4455,1.4465,1.4472,1.4489,1.4488,1.4497,1.4493,1.4509,1.4494,1.4493,1.449,1.4488,1.4488,1.4511,1.4511,1.4512,1.4512,0,1.4435,1.4433,1.4442,1.445,1.4457,1.4464,1.447,1.4475,1.4471,1.4479,1.4489,1.4495,1.4506,1.4515,1.4522,1.4524,1.4517,1.4517,1.452,1.452,1.4518,1.4517,1.4472,1.4515,1.4515,1.4515,1.4514,1.4514,1.4462,1.4471,1.4475,1.4485,1.4489,1.4494,1.4503,1.4503,1.4512,1.4521,1.4518,1.4529,1.4533,1.4543,1.4545,1.4554,1.4547,1.4553,1.4553,1.4554,1.4554,1.4519,1.4555,1.4555,1.4555,1.4555,1.4555,0,1.4497,1.4499,1.4509,1.4516,1.4524,1.4518,1.4523,1.453,1.454,1.4544,1.4551,1.4563,1.4571,1.4572,1.458,1.4586,1.4583,1.4588,1.4586,1.4587,1.4561,1.4556,1.4591,1.4591,1.4591,1.4591,1.4591,1.4591,1.4516,1.4531,1.453,1.4547,1.4549,1.456,1.4564,1.4568,1.4572,1.4585,1.4592,1.4592,1.4595,1.4603,1.461,1.461,1.4613,1.4619,1.4617,1.4592,1.4589,1.4585,1.4581,1.462,1.462,1.4642,1.4642,1.4642]}]]